Pittsburg, KS

12:14 AM CDT on May 28, 2018 (GMT -0500)
Atkinson Municipal

Weather History for KPTS - December, 2012

Change the Weather History Date:

Monday, December 10, 2012

  Actual Average (WUND) Record (WUND)
Temperature  
Mean Temperature 26 °F -  
Max Temperature 32 °F - - (-1)
Min Temperature 21 °F - - (-1)
Degree Days  
Heating Degree Days 38    
Moisture  
Dew Point 17 °F    
Average Humidity 67    
Maximum Humidity 85    
Minimum Humidity 53    
Precipitation  
Precipitation 0.00 in - - ()
Sea Level Pressure  
Sea Level Pressure 30.06 in    
Wind  
Wind Speed 9 mph (NW)    
Max Wind Speed 16 mph    
Max Gust Speed 24 mph    
Visibility 10 miles    
Events      
Averages and records for this station are not official NWS values.
T = Trace of Precipitation, MM = Missing Value Source: NWS Daily Summary

Daily Weather History Graph

Daily Weather History Graph

Search for Another Location

Airport or City:

Astronomy

Dec. 10, 2012 Rise Set
Actual Time 7:22 AM CST 5:01 PM CST
Civil Twilight 6:53 AM CST 5:30 PM CST
Nautical Twilight 6:21 AM CST 6:02 PM CST
Astronomical Twilight 5:49 AM CST 6:34 PM CST
Moon 4:09 AM CST (12/10) 2:49 PM CST (12/10)
Length of Visible Light 10h 36m
Length of Day
9h 38m
Waning Crescent, 10% of the Moon is Illuminated
Dec 10
Waning Crescent
Dec 13
New
Dec 19
First Quarter
Dec 28
Full
Jan 4
Last Quarter

Hourly Weather History & Observations

Time (CST) Temp. Windchill Dew Point Humidity Pressure Visibility Wind Dir Wind Speed Gust Speed Precip Events Conditions
12:15 AM 28.2 °F 17.2 °F 17.2 °F 63% 30.07 in 10.0 mi NNW 13.8 mph 18.4 mph N/A   Clear
12:35 AM 28.2 °F 18.9 °F 16.2 °F 61% 30.07 in 10.0 mi NNW 10.4 mph 21.9 mph N/A   Clear
12:55 AM 27.0 °F 17.3 °F 14.7 °F 60% 30.05 in 10.0 mi NNW 10.4 mph 18.4 mph N/A   Clear
1:15 AM 25.7 °F 13.5 °F 13.6 °F 60% 30.04 in 10.0 mi North 15.0 mph 20.7 mph N/A   Clear
1:35 AM 25.7 °F 13.1 °F 13.8 °F 61% 30.05 in 10.0 mi NNW 16.1 mph 24.2 mph N/A   Clear
1:55 AM 25.0 °F 14.2 °F 13.5 °F 62% 30.06 in 10.0 mi NNW 11.5 mph 18.4 mph N/A   Clear
2:15 AM 24.3 °F 13.9 °F 13.5 °F 63% 30.05 in 10.0 mi NNW 10.4 mph 16.1 mph N/A   Clear
2:55 AM 24.1 °F 13.7 °F 13.8 °F 65% 30.05 in 10.0 mi NNW 10.4 mph 19.6 mph N/A   Clear
3:15 AM 23.9 °F 13.5 °F 13.5 °F 64% 30.05 in 10.0 mi NW 10.4 mph 16.1 mph N/A   Clear
3:35 AM 24.6 °F 13.2 °F 14.2 °F 65% 30.05 in 10.0 mi NNW 12.7 mph - N/A   Scattered Clouds
3:55 AM 25.7 °F 15.1 °F 14.9 °F 64% 30.05 in 10.0 mi NNW 11.5 mph - N/A   Mostly Cloudy
4:15 AM 25.7 °F 15.1 °F 15.4 °F 65% 30.04 in 10.0 mi NNW 11.5 mph 19.6 mph N/A   Overcast
4:35 AM 25.7 °F 14.6 °F 15.4 °F 65% 30.05 in 10.0 mi NNW 12.7 mph - N/A   Overcast
4:55 AM 25.7 °F 15.1 °F 15.4 °F 65% 30.05 in 10.0 mi NNW 11.5 mph - N/A   Overcast
5:15 AM 25.5 °F 13.8 °F 15.8 °F 67% 30.07 in 10.0 mi NNW 13.8 mph - N/A   Overcast
5:35 AM 25.2 °F 13.3 °F 16.2 °F 69% 30.07 in 10.0 mi NNW 13.8 mph 18.4 mph N/A   Mostly Cloudy
5:55 AM 24.6 °F 12.7 °F 16.5 °F 71% 30.07 in 10.0 mi NNW 13.8 mph 20.7 mph N/A   Mostly Cloudy
6:15 AM 24.4 °F 12.4 °F 16.7 °F 72% 30.08 in 10.0 mi NW 13.8 mph 21.9 mph N/A   Mostly Cloudy
6:35 AM 24.1 °F 13.1 °F 16.5 °F 73% 30.09 in 10.0 mi NW 11.5 mph - N/A   Overcast
6:55 AM 23.9 °F 12.3 °F 16.2 °F 72% 30.09 in 10.0 mi NW 12.7 mph 19.6 mph N/A   Overcast
7:15 AM 23.5 °F 11.3 °F 15.8 °F 72% 30.09 in 10.0 mi NNW 13.8 mph 18.4 mph N/A   Overcast
7:35 AM 23.2 °F 12.6 °F 15.6 °F 73% 30.10 in 10.0 mi NW 10.4 mph 17.3 mph N/A   Overcast
7:55 AM 22.5 °F 11.1 °F 15.1 °F 73% 30.11 in 10.0 mi NNW 11.5 mph - N/A   Scattered Clouds
8:15 AM 21.9 °F 11.7 °F 14.5 °F 73% 30.11 in 10.0 mi NNW 9.2 mph - N/A   Clear
8:35 AM 22.1 °F 11.3 °F 14.5 °F 73% 30.10 in 10.0 mi NNW 10.4 mph - N/A   Clear
8:55 AM 22.1 °F 11.3 °F 14.0 °F 71% 30.10 in 10.0 mi NW 10.4 mph - N/A   Mostly Cloudy
9:15 AM 22.3 °F 13.9 °F 13.6 °F 69% 30.09 in 10.0 mi NNW 6.9 mph - N/A   Mostly Cloudy
9:35 AM 23.0 °F 14.7 °F 14.0 °F 68% 30.09 in 10.0 mi NNW 6.9 mph - N/A   Clear
9:55 AM 23.5 °F 15.4 °F 14.4 °F 68% 30.09 in 10.0 mi NNW 6.9 mph - N/A   Clear
10:15 AM 25.0 °F 18.1 °F 15.4 °F 67% 30.11 in 10.0 mi NW 5.8 mph - N/A   Clear
10:35 AM 25.9 °F 17.4 °F 16.0 °F 66% 30.10 in 10.0 mi NNW 8.1 mph - N/A   Clear
10:55 AM 27.7 °F 21.3 °F 17.1 °F 64% 30.11 in 10.0 mi WNW 5.8 mph - N/A   Scattered Clouds
11:15 AM 29.7 °F 22.0 °F 18.7 °F 64% 30.09 in 10.0 mi NNW 8.1 mph - N/A   Scattered Clouds
11:35 AM 30.2 °F 24.3 °F 18.7 °F 62% 30.09 in 10.0 mi NW 5.8 mph - N/A   Scattered Clouds
11:55 AM 30.7 °F 23.3 °F 19.4 °F 63% 30.08 in 10.0 mi NNW 8.1 mph - N/A   Scattered Clouds
12:15 PM 30.7 °F 24.1 °F 19.2 °F 62% 30.08 in 10.0 mi WNW 6.9 mph - N/A   Clear
12:35 PM 30.7 °F 24.9 °F 18.9 °F 61% 30.07 in 10.0 mi North 5.8 mph - N/A   Clear
12:55 PM 31.3 °F 23.9 °F 19.2 °F 61% 30.06 in 10.0 mi NW 8.1 mph - N/A   Scattered Clouds
1:15 PM 31.1 °F 23.1 °F 19.2 °F 61% 30.05 in 10.0 mi North 9.2 mph - N/A   Scattered Clouds
1:35 PM 31.3 °F 23.3 °F 19.0 °F 61% 30.05 in 10.0 mi NNW 9.2 mph - N/A   Clear
1:55 PM 31.8 °F 25.4 °F 19.0 °F 59% 30.04 in 10.0 mi NNW 6.9 mph - N/A   Clear
2:15 PM 32.2 °F 27.7 °F 19.0 °F 58% 30.05 in 10.0 mi NW 4.6 mph - N/A   Clear
2:35 PM 32.5 °F 26.2 °F 19.9 °F 60% 30.05 in 10.0 mi NNW 6.9 mph - N/A   Clear
2:55 PM 32.9 °F 25.3 °F 19.6 °F 58% 30.05 in 10.0 mi NW 9.2 mph - N/A   Clear
3:15 PM 32.9 °F 26.7 °F 18.9 °F 56% 30.04 in 10.0 mi NW 6.9 mph - N/A   Clear
3:35 PM 32.9 °F 27.5 °F 18.7 °F 56% 30.04 in 10.0 mi NW 5.8 mph - N/A   Clear
3:55 PM 32.9 °F 28.5 °F 18.1 °F 55% 30.03 in 10.0 mi WNW 4.6 mph - N/A   Clear
4:15 PM 32.7 °F 27.3 °F 17.1 °F 53% 30.03 in 10.0 mi NNW 5.8 mph - N/A   Clear
4:35 PM 32.0 °F 26.4 °F 16.7 °F 53% 30.04 in 10.0 mi NNW 5.8 mph - N/A   Clear
4:55 PM 31.1 °F - 16.3 °F 54% 30.04 in 10.0 mi Calm Calm - N/A   Clear
5:15 PM 30.7 °F - 16.7 °F 56% 30.04 in 10.0 mi Calm Calm - N/A   Clear
5:35 PM 30.4 °F - 17.1 °F 58% 30.05 in 10.0 mi Calm Calm - N/A   Clear
5:55 PM 30.7 °F 27.3 °F 18.0 °F 59% 30.05 in 10.0 mi WSW 3.5 mph - N/A   Clear
6:15 PM 29.3 °F 25.6 °F 17.1 °F 60% 30.04 in 10.0 mi WSW 3.5 mph - N/A   Clear
6:35 PM 27.3 °F - 17.1 °F 65% 30.04 in 10.0 mi Calm Calm - N/A   Clear
6:55 PM 25.3 °F 21.1 °F 18.0 °F 74% 30.05 in 10.0 mi WSW 3.5 mph - N/A   Clear
7:15 PM 25.7 °F 21.5 °F 17.8 °F 72% 30.05 in 10.0 mi SSW 3.5 mph - N/A   Clear
7:35 PM 23.7 °F 17.8 °F 16.5 °F 74% 30.05 in 10.0 mi South 4.6 mph - N/A   Clear
7:55 PM 23.0 °F 18.4 °F 16.7 °F 77% 30.05 in 10.0 mi SSW 3.5 mph - N/A   Clear
8:15 PM 22.8 °F - 17.2 °F 79% 30.05 in 10.0 mi Calm Calm - N/A   Clear
8:35 PM 22.3 °F 17.6 °F 17.1 °F 80% 30.05 in 10.0 mi SSW 3.5 mph - N/A   Clear
8:55 PM 22.3 °F 17.6 °F 17.4 °F 82% 30.05 in 10.0 mi SW 3.5 mph - N/A   Clear
9:15 PM 22.8 °F 18.2 °F 18.1 °F 82% 30.05 in 10.0 mi WSW 3.5 mph - N/A   Clear
9:35 PM 22.8 °F 16.7 °F 18.3 °F 83% 30.06 in 10.0 mi SW 4.6 mph - N/A   Clear
9:55 PM 22.5 °F 16.3 °F 18.7 °F 85% 30.06 in 10.0 mi SSW 4.6 mph - N/A   Clear
10:15 PM 22.5 °F - 17.8 °F 82% 30.06 in 10.0 mi Calm Calm - N/A   Clear
10:35 PM 21.7 °F - 17.2 °F 83% 30.06 in 10.0 mi Calm Calm - N/A   Clear
10:55 PM 21.0 °F 16.2 °F 16.7 °F 83% 30.06 in 10.0 mi SSW 3.5 mph - N/A   Clear
11:15 PM 21.2 °F 16.4 °F 16.9 °F 83% 30.06 in 10.0 mi SSW 3.5 mph - N/A   Clear
11:35 PM 22.5 °F 16.3 °F 17.4 °F 81% 30.07 in 10.0 mi SSW 4.6 mph - N/A   Clear
11:55 PM 22.3 °F 13.9 °F 16.5 °F 79% 30.07 in 10.0 mi South 6.9 mph - N/A   Clear